TimeEDT,TemperatureF,Dew PointF,Humidity,Sea Level PressureIn,VisibilityMPH,Wind Direction,Wind SpeedMPH,Gust SpeedMPH,PrecipitationIn,Events,Conditions,WindDirDegrees,DateUTC
12:56 AM,37.0,34.0,89,30.34,10.0,Calm,Calm,-,N/A,,Clear,0,2013-04-18 04:56:00
1:56 AM,36.0,34.0,93,30.35,10.0,Calm,Calm,-,N/A,,Clear,0,2013-04-18 05:56:00
2:56 AM,35.1,33.1,92,30.35,10.0,Calm,Calm,-,N/A,,Clear,0,2013-04-18 06:56:00
3:56 AM,34.0,32.0,92,30.37,10.0,Calm,Calm,-,N/A,,Clear,0,2013-04-18 07:56:00
4:56 AM,35.1,33.1,92,30.39,10.0,Calm,Calm,-,N/A,,Clear,0,2013-04-18 08:56:00
5:16 AM,33.8,33.8,100,30.39,1.5,Calm,Calm,-,N/A,,Clear,0,2013-04-18 09:16:00
5:20 AM,35.6,33.8,93,30.39,0.5,Calm,Calm,-,N/A,Fog,Fog,0,2013-04-18 09:20:00
5:30 AM,33.8,33.8,100,30.38,3.0,NE,4.6,-,N/A,,Clear,50,2013-04-18 09:30:00
5:56 AM,35.1,34.0,96,30.40,10.0,NNE,4.6,-,N/A,,Clear,30,2013-04-18 09:56:00
6:56 AM,44.1,36.0,73,30.39,10.0,East,5.8,-,N/A,,Clear,80,2013-04-18 10:56:00
7:56 AM,50.0,32.0,50,30.40,10.0,ESE,11.5,23.0,N/A,,Clear,110,2013-04-18 11:56:00
8:56 AM,51.1,34.0,52,30.40,10.0,Variable,5.8,17.3,N/A,,Clear,0,2013-04-18 12:56:00
9:56 AM,51.1,33.1,50,30.41,10.0,ESE,12.7,20.7,N/A,,Clear,110,2013-04-18 13:56:00
10:56 AM,53.1,28.9,40,30.41,10.0,ESE,13.8,23.0,N/A,,Clear,120,2013-04-18 14:56:00
11:56 AM,52.0,32.0,47,30.41,10.0,SE,15.0,21.9,N/A,,Clear,130,2013-04-18 15:56:00
12:56 PM,52.0,37.0,57,30.40,10.0,SE,10.4,19.6,N/A,,Clear,130,2013-04-18 16:56:00
1:56 PM,54.0,37.9,55,30.39,10.0,SE,8.1,-,N/A,,Clear,130,2013-04-18 17:56:00
2:56 PM,54.0,39.0,57,30.36,10.0,South,8.1,-,N/A,,Clear,180,2013-04-18 18:56:00
3:56 PM,55.0,41.0,59,30.33,10.0,SE,9.2,-,N/A,,Clear,140,2013-04-18 19:56:00
4:56 PM,52.0,42.1,69,30.32,10.0,SSE,9.2,-,N/A,,Clear,160,2013-04-18 20:56:00
5:56 PM,52.0,41.0,66,30.30,10.0,SSE,5.8,16.1,N/A,,Clear,150,2013-04-18 21:56:00
6:56 PM,50.0,42.1,74,30.29,10.0,SSE,5.8,-,N/A,,Clear,160,2013-04-18 22:56:00
7:56 PM,48.0,44.1,86,30.28,10.0,SE,5.8,-,N/A,,Clear,140,2013-04-18 23:56:00
8:56 PM,48.9,43.0,80,30.27,10.0,SE,8.1,-,N/A,,Mostly Cloudy,140,2013-04-19 00:56:00
9:56 PM,48.0,43.0,83,30.24,10.0,SSE,6.9,-,N/A,,Clear,150,2013-04-19 01:56:00
10:48 PM,48.2,44.6,87,30.21,10.0,SSE,6.9,-,N/A,,Mostly Cloudy,160,2013-04-19 02:48:00
10:56 PM,48.9,45.0,86,30.21,10.0,SSE,3.5,-,N/A,,Mostly Cloudy,150,2013-04-19 02:56:00
11:56 PM,51.1,46.9,86,30.17,10.0,Variable,5.8,-,N/A,,Overcast,0,2013-04-19 03:56:00